Other Public Products
Issued by NWS Grand Forks, ND

Home | Current Version | Previous Version | Graphics & Text | Print | Product List | Glossary On
Versions: 1 2 3 4 5 6 7 8 9 10 11 12 13 14 15 16 17 18 19 20 21 22 23 24 25 26 27 28 29 30 31 32 33 34 35 36 37 38 39 40 41 42 43 44 45 46 47 48 49 50
000
FPUS83 KFGF 281431
OPUFGF
PRAIRIE TO PINES WEATHER ROUNDUP
NATIONAL WEATHER SERVICE EASTERN NORTH DAKOTA/GRAND FORKS ND
900 AM CDT THU APR 28 2016

 **SATELLITE DATA USED TO AUGMENT SKY COVER AT AUTOMATED STATIONS**
 *****  WEATHER ACROSS EASTERN NORTH DAKOTA  *****

CITY           SKY/WX    TMP DP  RH WIND       PRES   REMARKS
GRAND FORKS    CLOUDY    44  23  43 NE12      30.12R
GRAND FORKS AF CLOUDY    43  22  42 NE8       30.12R
GRAND CITY NWS NOT AVBL
BUXTON           N/A     47  23  39 NE12        N/A
DEVILS LAKE    PTSUNNY   40  22  48 NE14      30.13R
FARGO          CLOUDY    45  27  49 E8        30.06R
WAHPETON ARPT  CLOUDY    39  30  70 NE16      30.03R
$$

 *****  WEATHER ACROSS CENTRAL AND WESTERN NORTH DAKOTA  *****

CITY           SKY/WX    TMP DP  RH WIND       PRES   REMARKS
JAMESTOWN      CLOUDY    41  30  65 NE10      30.06R
BISMARCK       CLOUDY    40  34  79 CALM      30.09R
MINOT          CLOUDY    43  22  43 NE7       30.14R
MINOT AFB      CLOUDY    40  22  46 NE9       30.13R
GARRISON         N/A     41  25  53 NE8       30.11R
WILLISTON      CLOUDY    41  25  53 NE9       30.13S
DICKINSON      CLOUDY    35  30  82 NE5       30.05R
HETTINGER      LGT SNOW  34  32  92 NE7       30.08R FOG
$$

 *****  OTHER OBSERVATIONS NORTHEAST NORTH DAKOTA  *****

CITY           SKY/WX    TMP DP  RH WIND       PRES   REMARKS
WALHALLA       FAIR      39  23  52 N7        30.19R
LANGDON        FAIR      41  21  45 NE15      30.16R
CAVALIER       FAIR      41  25  52 NE8       30.18R
GRAFTON        FAIR      43  25  49 NE12      30.17R
CANDO          FAIR      41  19  42 NE13      30.17R
FORT TOTTEN      N/A     40  21  47 NE7       29.95S
ROLLA          FAIR      37  19  48 NE10      30.18R
RUGBY          FAIR      41  21  45 NE17      30.14R
 ***** THE ABOVE OBSERVATIONS ARE NON NWS ARE NOT QUALITY
        CONTROLLED AND MAY MIS-REPORT RAIN FOR SNOW...
$$

 *****  OTHER OBSERVATIONS SOUTHEAST NORTH DAKOTA *****

CITY           SKY/WX    TMP DP  RH WIND       PRES   REMARKS
COOPERSTOWN    NOT AVBL
VALLEY CITY    PTSUNNY   41  27  56 NE15      30.08R
OAKES            N/A    N/A N/A N/A MISG        N/A
GWINNER        CLOUDY    43  32  65 NE12      30.04R
BUFFALO          N/A     44  23  44 NE13        N/A
WYNDMERE         N/A     43  30  61 NE13        N/A
 ***** THE ABOVE OBSERVATIONS ARE NON NWS ARE NOT QUALITY
       CONTROLLED AND MAY MIS-REPORT RAIN FOR SNOW...
$$

  *****  WEATHER ACROSS NORTHERN MINNESOTA  *****

CITY           SKY/WX    TMP DP  RH WIND       PRES   REMARKS
FLAG ISLAND    CLOUDY    39  18  41 NE9       30.19S
WARROAD        CLOUDY    39  28  65 NE10      30.19R
ROSEAU         CLOUDY    43  28  56 E13       30.17S
HALLOCK        CLOUDY    43  18  36 E12       30.16S
THF RVR FALLS  PTSUNNY   41  21  45 NE12      30.14R
HALSTAD        NOT AVBL
FOSSTON        CLOUDY    41  19  42 NE9       30.09S
BAUDETTE       CLOUDY    41  17  38 E10       30.16R
WASKISH        PTSUNNY   39  21  48 NE10      30.13R
CROOKSTON      CLOUDY    45  21  39 E10G16    30.12R
$$
  *****  WEATHER ACROSS CENTRAL AND WEST MINNESOTA  *****

CITY           SKY/WX    TMP DP  RH WIND       PRES   REMARKS
BEMIDJI        CLOUDY    41  18  39 E9        30.08S
PARK RAPIDS    CLOUDY    43  13  29 E8        30.03S
WADENA         CLOUDY    39  19  45 NE10      30.01S
DETROIT LAKES  CLOUDY    41  23  48 E7        30.05R
MOORHEAD       CLOUDY    45  21  39 E9        30.07R
FERGUS FALLS   CLOUDY    39  27  60 NE10      30.01R
ELBOW LAKE     CLOUDY    41  23  49 NE8       30.01R
MORRIS MN      MIX PCPN  39  28  65 NE7       29.98R
STAPLES        CLOUDY    43  14  31 NE12G17   30.01S
WHEATON        CLOUDY    43  30  61 NE7       30.03R
$$
  *****  WEATHER ELSEWHERE ACROSS MINNESOTA  *****

CITY           SKY/WX    TMP DP  RH WIND       PRES   REMARKS
DULUTH         CLOUDY    40  23  50 E14G22    30.05R
INTRNTL FALLS  CLOUDY    40  19  43 NE8       30.15S
ELY            CLOUDY    39  19  45 E12G17    30.11S
CLOQUET        CLOUDY    41  19  42 E13G21    30.04R
BRAINERD       CLOUDY    43  16  33 E7        30.02R
HIBBING        CLOUDY    39  18  42 NE9       30.07S
ALEXANDRIA     CLOUDY    39  22  50 E12       29.99R
SAINT CLOUD    CLOUDY    39  24  55 E12       29.98R
MINNEAPOLIS    LGT RAIN  37  32  82 NE15      29.95R
$$

  *****  WEATHER ACROSS SOUTH DAKOTA  *****

CITY           SKY/WX    TMP DP  RH WIND       PRES   REMARKS
SIOUX FALLS    LGT RAIN  39  36  89 NE12      29.90R FOG
BROOKINGS      LGT SNOW  34  30  86 N7        29.94R VSB 3/4
WATERTOWN      LGT SNOW  35  31  85 NE9       29.96S FOG
HURON          CLOUDY    38  35  89 NE8       29.99R
SISSETON         N/A     41  29  62 E12       30.00R
ABERDEEN       CLOUDY    41  33  73 NE10      30.02R
MITCHELL       LGT RAIN  37  35  92 N13       29.97R
PIERRE         CLOUDY    37  33  85 N7        30.01R
MOBRIDGE       LGT RAIN  39  35  86 NE8       30.03R
RAPID CITY     CLOUDY    33  32  96 N10       30.03R WCI  25
$$

  *****  SOME WEATHER IN NEARBY STATES *****

CITY           SKY/WX    TMP DP  RH WIND       PRES   REMARKS
GLASGOW MT     PTSUNNY   39  32  76 E6        30.13S
GREAT FALLS MT LGT SNOW  32  31  96 NE10      30.10R VSB 3/4 WCI  24
CHEYENNE WY    CLOUDY    32  28  85 NE5       29.95R
SCOTTSBLUFF NE MOSUNNY   38  27  64 N9        29.99S
OMAHA NE       CLOUDY    47  43  86 NW15      29.83R
DES MOINES IA  CLOUDY    50  44  80 CALM      29.80R
DAVENPORT IA   CLOUDY    48  46  93 E15       29.82S FOG
CHICAGO IL     CLOUDY    44  40  85 NE12      29.86R
EAU CLAIRE WI  RAIN      36  33  89 NE8       29.98R FOG
LA CROSSE WI   CLOUDY    43  31  62 NE8       29.91R
$$

  *****  SOME NATIONAL WEATHER *****

CITY           SKY/WX    TMP DP  RH WIND       PRES   REMARKS
LA GUARDIA NY  PTSUNNY   52  24  33 NE10G22   30.06S
RALEIGH NC     CLOUDY    70  62  76 SW7       29.93R
ATLANTA GA     MOSUNNY   72  65  78 SW9       29.96R
NEW ORLEANS LA PTSUNNY   81  75  82 SW13      29.89R
OKLAHOMA CITY  MOSUNNY   58  44  60 NE14      29.95R
ALBUQUERQUE NM CLOUDY    58  27  30 VRB3      29.81R
SALT LAKE CITY LGT RAIN  48  44  86 SW5       29.69R
LOS ANGELES CA FAIR      54  47  77 E5        29.82R
BOISE ID       FAIR      44  38  79 CALM      29.84R
SEATTLE WA     CLOUDY    50  47  89 SW5       30.11R
$$

*** WEATHER ACROSS MANITOBA...SASKATCHEWAN AND ONTARIO ***
                ***ONTARIO***

CITY           SKY/WX    TMP DP  RH WIND       PRES   REMARKS
GERALDTON      PTSUNNY   36  25  64 NE7       30.19S
THUNDER BAY    PTSUNNY   39  25  56 NE10G17   30.20R
SIOUX LOOKOUT  PTSUNNY   39  18  41 VRB3      30.23R
TORONTO        PTSUNNY   46  18  31 E12G18    30.09S
BIG TROUT LK   CLOUDY    30  19  64 N5        30.30S
PICKLE LAKE    PTSUNNY   36  18  48 N6        30.22F
DRYDEN         SUNNY     41  14  33 NE6       30.21R
KENORA         PTSUNNY   41  14  33 NE6       30.21R
$$
                *** MANITOBA***

CITY           SKY/WX    TMP DP  RH WIND       PRES   REMARKS
BRANDON        CLOUDY    43  19  39 NE16      30.23R
DAUPHIN        SUNNY     39  25  56 N3        30.29R
ISLAND LAKE    MOSUNNY   34   9  35 VRB2      30.39R
PILOT MOUND      N/A     41  16  36 NE13        N/A
THE PAS        MOSUNNY   39  21  48 SE6       30.36R
THOMPSON       MOSUNNY   37  16  41 SE3       30.43S
WINNIPEG       PTSUNNY   43  18  36 NE8       30.23R
LYNN LAKE      CLOUDY    39  23  52 S9        30.30F
CHURCHILL      PTSUNNY   25  19  80 N5        30.51S WCI  19
GILLAM         MOSUNNY   28  10  47 VRB2      30.45S
$$
                ***SASKATCHEWAN***

CITY           SKY/WX    TMP DP  RH WIND       PRES   REMARKS
ESTEVAN        CLOUDY    41  23  48 E13       30.18R
KINDERSLEY     CLOUDY    41  36  81 NE3       30.20S
LLOYDMINSTER   PTSUNNY   43  32  65 SE7       30.19R
PRINCE ALBERT  PTSUNNY   41  30  65 E3        30.28R
REGINA         CLOUDY    43  21  42 E9        30.22S
YORKTON        SUNNY     39  27  60 NE6       30.26R
N. BATTLEFORD  SUNNY     46  25  42 E10       30.25R   C1F1C2F2C3F3C4F4C5F5C6F6C7F7C8F8C9F9CaFaCbFbCcFcCdFdCe!



USA.gov is the U.S. government's official web portal to all federal, state and local government web resources and services.